This is the latest recevied weather packets stored in our database for station/object EA3ANS-1. If no packets are shown the sender has not sent any weather packets the latest 10 day(s).
| Time | Temp. | Humidity | Pressure | Rain* | Wind** | Luminosity | Snow |
|---|---|---|---|---|---|---|---|
| 1777771388 | 17.22° C | - | 1017.2 hPa | 0 mm | 0.89 m/s, 143° | - | - |
| 1777770790 | 16.67° C | - | 1017.3 hPa | 0 mm | 1.34 m/s, 105° | - | - |
| 1777770188 | 17.22° C | - | 1017.2 hPa | 0 mm | 0.89 m/s, 53° | - | - |
| 1777769591 | 16.67° C | - | 1017.4 hPa | 0 mm | 1.34 m/s, 108° | - | - |
| 1777768993 | 17.22° C | - | 1017.7 hPa | 0 mm | 1.79 m/s, 45° | - | - |
| 1777768388 | 17.22° C | - | 1017.9 hPa | 0 mm | 1.79 m/s, 91° | - | - |
| 1777767791 | 17.22° C | - | 1018 hPa | 0 mm | 1.79 m/s, 84° | - | - |
| 1777767191 | 16.67° C | - | 1018.2 hPa | 0 mm | 1.79 m/s, 56° | - | - |
| 1777766592 | 17.22° C | - | 1018.3 hPa | 0 mm | 1.79 m/s, 63° | - | - |
| 1777765995 | 17.22° C | - | 1018.3 hPa | 0 mm | 0 m/s | - | - |
| 1777765396 | 17.22° C | - | 1018.3 hPa | 0 mm | 0.89 m/s, 90° | - | - |
| 1777764799 | 16.67° C | - | 1018.4 hPa | 0 mm | 1.79 m/s, 49° | - | - |
| 1777764195 | 17.22° C | - | 1018.5 hPa | 0 mm | 1.79 m/s, 91° | - | - |
| 1777763598 | 17.22° C | - | 1018.5 hPa | 0 mm | 2.68 m/s, 73° | - | - |
| 1777762982 | 17.22° C | - | 1018.4 hPa | 0 mm | 2.24 m/s, 98° | - | - |
| 1777762384 | 17.22° C | - | 1018.5 hPa | 0 mm | 2.24 m/s, 83° | - | - |
| 1777761787 | 17.22° C | - | 1018.5 hPa | 0 mm | 2.24 m/s, 118° | - | - |
| 1777761189 | 17.22° C | - | 1018.5 hPa | 0 mm | 2.24 m/s, 94° | - | - |
| 1777760592 | 16.67° C | - | 1018.5 hPa | 0 mm | 1.34 m/s, 132° | - | - |
| 1777759988 | 17.22° C | - | 1018.5 hPa | 0 mm | 3.13 m/s, 68° | - | - |
| 1777759381 | 17.22° C | - | 1018.5 hPa | 0 mm | 1.34 m/s, 62° | - | - |
| 1777758783 | 17.22° C | - | 1018.8 hPa | 0 mm | 0.89 m/s, 35° | - | - |
| 1777758182 | 17.22° C | - | 1018.8 hPa | 0 mm | 1.34 m/s, 66° | - | - |
| 1777757579 | 17.22° C | - | 1018.9 hPa | 0 mm | 1.79 m/s, 113° | - | - |
| 1777756981 | 17.22° C | - | 1019 hPa | 0 mm | 1.79 m/s, 122° | - | - |
* Rain latest hour (hover to see other rain measurements)
** Current wind speed in m/s (hover to see current wind gust speed)